Content
SEND FEEDBACK

Daily
Averages
Monthly
Summary
Philippines

BAGUMBAYAN, PHILIPPINES


Home > Asia > Philippines
Elevation: 49 feet     Latitude: 14 31N     Longitude: 121 00E

WEATHER
 
SELECT A DAY
Number of Records: 172,573;   Date Range: 7/1/96 - 8/12/14
 
SHARE

PRINT THIS DATA

[ ← Previous Day ]
WEATHER ALMANAC - FEBRUARY 13, 2013
[ Next Day → ]
[ °C ]   °F
Weather ElementAverageHighLow
Temperature81.8 °F88 °F (2:00 pm)75.2 °F (3:00 am)
Dewpoint71.2 °F73.4 °F (2:00 am)69.8 °F (4:00 am)
Humidity69.3 %89 % (2:00 am)49 % (11:00 am)
Barometer29.90 in29.96 in (11:00 am)29.83 in (3:00 pm)
Wind Speed8.4 mph13.8 mph (4:00 pm)
Weather ElementAverage
Visibility6.1 mi
Wind DirectionENE (78 °)

Weather ElementTotal
Precipitation---
Cooling Degree Days16.6 (Base 65)
Growing Degree Days31.6 (Base 50)
Averaged from 30 records on February 13, 2013
WEATHER CONDITIONS BREAKOUT
WIND DIRECTION BREAKOUT
WEATHER BY HOUR - FEBRUARY 13, 2013
[ °C ]   °F
Local TimeTemperatureDewpointHumidityBarometerVisibilityWind DirectionWind SpeedGust SpeedPrecipitationEventsConditions
1:00 AM80.6 °F71.6 °F74 %29.92 in6.2 miEast (80°)5.8 mphMostly Cloudy
2:00 AM77.0 °F73.0 °F85 %29.92 in6.0 miENE (60°)6.7 mphHaze
2:00 AM77.0 °F73.4 °F89 %29.92 in6.2 miENE (60°)6.9 mphPartly Cloudy
3:00 AM75.2 °F71.6 °F89 %29.89 in6.2 miENE (60°)3.5 mphPartly Cloudy
4:00 AM75.2 °F69.8 °F83 %29.89 in6.2 miENE (70°)4.6 mphPartly Cloudy
5:00 AM76.0 °F71.0 °F80 %29.90 in6.0 miNE (40°)4.5 mphHaze
5:00 AM77.0 °F71.6 °F83 %29.89 in6.2 miNE (40°)3.5 mphPartly Cloudy
6:00 AM77.0 °F69.8 °F78 %29.89 in6.2 miVariable2.3 mphPartly Cloudy
8:00 AM79.0 °F70.0 °F68 %29.95 in6.0 miNNE (30°)4.5 mphHaze
8:00 AM78.8 °F69.8 °F74 %29.95 in6.2 miNNE (30°)4.6 mphScattered Clouds
9:00 AM82.4 °F69.8 °F66 %29.95 in6.2 miEast (100°)3.5 mphPartly Cloudy
10:00 AM84.2 °F69.8 °F62 %29.95 in6.2 miVariable6.9 mphScattered Clouds
11:00 AM86.0 °F70.0 °F49 %29.96 in6.0 miEast (100°)6.7 mphHaze
11:00 AM86.0 °F69.8 °F58 %29.95 in6.2 miEast (100°)8.1 mphScattered Clouds
12:00 PM86.0 °F69.8 °F58 %29.92 in6.2 miNorthScattered Clouds
1:00 PM87.8 °F71.6 °F58 %29.89 in6.2 miEast (90°)9.2 mphScattered Clouds
2:00 PM88.0 °F72.0 °F51 %29.86 in6.0 miESE (110°)11.2 mphHaze
2:00 PM87.8 °F71.6 °F58 %29.86 in6.2 miESE (110°)12.7 mphScattered Clouds
3:00 PM87.8 °F71.6 °F58 %29.83 in6.2 miESE (110°)12.7 mphScattered Clouds
4:00 PM86.0 °F69.8 °F58 %29.83 in6.2 miEast (100°)13.8 mphMostly Cloudy
5:00 PM85.0 °F72.0 °F56 %29.86 in6.0 miEast (100°)13.4 mphHaze
5:00 PM84.2 °F71.6 °F66 %29.86 in6.2 miEast (100°)13.8 mphScattered Clouds
6:00 PM84.2 °F71.6 °F66 %29.86 in6.2 miESE (110°)10.4 mphScattered Clouds
7:00 PM82.4 °F71.6 °F70 %29.86 in6.2 miESE (110°)11.5 mphMostly Cloudy
8:00 PM81.0 °F72.0 °F68 %29.89 in6.0 miESE (110°)8.9 mphHaze
8:00 PM80.6 °F71.6 °F74 %29.89 in6.2 miESE (110°)9.2 mphScattered Clouds
9:00 PM80.6 °F71.6 °F74 %29.92 in6.2 miEast (100°)11.5 mphPartly Cloudy
10:00 PM80.6 °F71.6 °F74 %29.92 in6.2 miEast (90°)11.5 mphPartly Cloudy
11:00 PM80.0 °F72.0 °F72 %29.92 in6.0 miESE (110°)11.2 mphHaze
11:00 PM80.6 °F73.4 °F79 %29.92 in6.2 miESE (110°)11.5 mphPartly Cloudy
Hourly data recorded from RPLL, located miles away from Bagumbayan, Philippines







STORIES FROM OUR PARTNERS